When you browse on this site, cookies collect data to enhance your experience and personalize the content and advertising you see.
Visit our Privacy Policy to learn more. By continuing to use the site, you agree to this use of cookies and data.
  • In Germany
  • List of Countries
  • For 7 days
  • Water Temperature
  • Satellite Maps
  • Weather Map
  • Weather Widgets
  • user-avatar
    Login

    Hourly Weather Carlisle

    Today, 16 December, Sunday

    Time Temperature Precipitation Wind Pressure Humidity
    00:00 +4°C° 0 mm 8 mps 739 mmHg 91%
    01:00 +3°C° 0.6 mm 9 mps 740 mmHg 88%
    02:00 +3°C° 0.6 mm 9 mps 741 mmHg 84%
    03:00 +3°C° 0.6 mm 9 mps 742 mmHg 81%
    04:00 +4°C° 0 mm 8 mps 743 mmHg 82%
    05:00 +4°C° 0 mm 7 mps 744 mmHg 84%
    06:00 +3°C° 0 mm 5 mps 745 mmHg 86%
    07:00 +3°C° 0 mm 5 mps 746 mmHg 87%
    08:00 +3°C° 0 mm 5 mps 747 mmHg 88%
    09:00 +4°C° 0 mm 4 mps 748 mmHg 89%
    10:00 +4°C° 0 mm 4 mps 748 mmHg 87%
    11:00 +5°C° 0 mm 4 mps 748 mmHg 86%
    12:00 +6°C° 0 mm 4 mps 748 mmHg 86%
    13:00 +5°C° 0.1 mm 4 mps 748 mmHg 88%
    14:00 +5°C° 0.1 mm 3 mps 749 mmHg 89%
    15:00 +5°C° 0.1 mm 3 mps 749 mmHg 91%
    16:00 +4°C° 0.6 mm 3 mps 749 mmHg 92%
    17:00 +4°C° 0.6 mm 3 mps 749 mmHg 93%
    18:00 +4°C° 0.6 mm 3 mps 749 mmHg 93%
    19:00 +4°C° 1.4 mm 3 mps 749 mmHg 94%
    20:00 +4°C° 1.4 mm 3 mps 750 mmHg 94%
    21:00 +4°C° 1.4 mm 3 mps 750 mmHg 94%
    22:00 +4°C° 0.3 mm 3 mps 750 mmHg 94%
    23:00 +5°C° 0.3 mm 2 mps 751 mmHg 95%

    Tomorrow, 17 December, Monday

    Time Temperature Precipitation Wind Pressure Humidity
    00:00 +5°C° 0.3 mm 2 mps 751 mmHg 95%
    01:00 +4°C° 0 mm 3 mps 752 mmHg 94%
    02:00 +4°C° 0 mm 3 mps 752 mmHg 93%
    03:00 +4°C° 0 mm 3 mps 753 mmHg 92%
    04:00 +4°C° 0 mm 3 mps 753 mmHg 92%
    05:00 +4°C° 0 mm 3 mps 754 mmHg 92%
    06:00 +5°C° 0 mm 2 mps 754 mmHg 91%
    07:00 +4°C° 0 mm 3 mps 755 mmHg 91%
    08:00 +4°C° 0 mm 3 mps 756 mmHg 91%
    09:00 +3°C° 0 mm 3 mps 756 mmHg 91%
    10:00 +4°C° 0 mm 3 mps 756 mmHg 89%
    11:00 +5°C° 0 mm 4 mps 757 mmHg 87%
    12:00 +6°C° 0 mm 4 mps 757 mmHg 85%
    13:00 +6°C° 0 mm 4 mps 756 mmHg 86%
    14:00 +6°C° 0 mm 4 mps 756 mmHg 87%
    15:00 +6°C° 0 mm 5 mps 756 mmHg 88%
    16:00 +6°C° 0.1 mm 5 mps 756 mmHg 89%
    17:00 +6°C° 0.1 mm 5 mps 755 mmHg 89%
    18:00 +5°C° 0.1 mm 6 mps 755 mmHg 90%
    19:00 +5°C° 0.2 mm 6 mps 755 mmHg 90%
    20:00 +7°C° 0.2 mm 6 mps 755 mmHg 90%
    21:00 +6°C° 0.2 mm 7 mps 754 mmHg 90%
    22:00 +6°C° 0.1 mm 7 mps 754 mmHg 90%
    23:00 +8°C° 0.1 mm 7 mps 754 mmHg 90%

    Day after tomorrow, 18 December, Tuesday

    Time Temperature Precipitation Wind Pressure Humidity
    00:00 +8°C° 0.1 mm 7 mps 754 mmHg 89%
    01:00 +8°C° 0.1 mm 7 mps 753 mmHg 89%
    02:00 +7°C° 0.1 mm 8 mps 752 mmHg 88%
    03:00 +7°C° 0.1 mm 8 mps 752 mmHg 87%
    04:00 +7°C° 0.1 mm 8 mps 751 mmHg 86%
    05:00 +9°C° 0.1 mm 8 mps 750 mmHg 86%
    06:00 +8°C° 0.1 mm 9 mps 750 mmHg 86%
    07:00 +8°C° 0.1 mm 9 mps 749 mmHg 85%
    08:00 +8°C° 0.1 mm 9 mps 748 mmHg 85%
    09:00 +8°C° 0.1 mm 10 mps 748 mmHg 84%
    10:00 +7°C° 0.8 mm 10 mps 747 mmHg 84%
    11:00 +7°C° 0.8 mm 10 mps 747 mmHg 84%
    12:00 +7°C° 0.8 mm 10 mps 747 mmHg 84%
    13:00 +7°C° 1.1 mm 10 mps 746 mmHg 84%
    14:00 +6°C° 1.1 mm 10 mps 745 mmHg 84%
    15:00 +6°C° 1.1 mm 10 mps 744 mmHg 84%
    16:00 +6°C° 1.2 mm 8 mps 744 mmHg 85%
    17:00 +6°C° 1.2 mm 7 mps 744 mmHg 87%
    18:00 +7°C° 1.2 mm 6 mps 744 mmHg 89%
    19:00 +6°C° 0.2 mm 5 mps 745 mmHg 89%
    20:00 +6°C° 0.2 mm 4 mps 745 mmHg 90%
    21:00 +7°C° 0.2 mm 3 mps 745 mmHg 91%
    22:00 +7°C° 0 mm 3 mps 745 mmHg 91%
    23:00 +7°C° 0 mm 3 mps 746 mmHg 92%

    19 December, Wednesday

    Time Temperature Precipitation Wind Pressure Humidity
    00:00 +5°C° 0 mm 3 mps 746 mmHg 92%
    01:00 +5°C° 0.1 mm 3 mps 746 mmHg 92%
    02:00 +5°C° 0.1 mm 3 mps 747 mmHg 92%
    03:00 +4°C° 0.1 mm 3 mps 747 mmHg 92%
    04:00 +4°C° 0 mm 3 mps 747 mmHg 91%
    05:00 +4°C° 0 mm 3 mps 748 mmHg 90%
    06:00 +4°C° 0 mm 3 mps 748 mmHg 89%
    07:00 +4°C° 0 mm 4 mps 748 mmHg 88%
    08:00 +4°C° 0 mm 4 mps 748 mmHg 87%
    09:00 +3°C° 0 mm 4 mps 749 mmHg 86%
    10:00 +4°C° 0 mm 4 mps 749 mmHg 83%
    11:00 +5°C° 0 mm 5 mps 749 mmHg 81%
    12:00 +6°C° 0 mm 5 mps 749 mmHg 79%
    13:00 +6°C° 0.1 mm 5 mps 749 mmHg 80%
    14:00 +5°C° 0.1 mm 5 mps 748 mmHg 82%
    15:00 +5°C° 0.1 mm 5 mps 748 mmHg 84%
    16:00 +5°C° 0.2 mm 5 mps 748 mmHg 85%
    17:00 +5°C° 0.2 mm 5 mps 748 mmHg 86%
    18:00 +3°C° 0.2 mm 5 mps 748 mmHg 88%
    19:00 +3°C° 0.3 mm 5 mps 748 mmHg 88%
    20:00 +3°C° 0.3 mm 5 mps 748 mmHg 88%
    21:00 +3°C° 0.3 mm 5 mps 748 mmHg 89%
    22:00 +4°C° 0.2 mm 4 mps 748 mmHg 89%
    23:00 +4°C° 0.2 mm 4 mps 748 mmHg 90%

    20 December, Thursday

    Time Temperature Precipitation Wind Pressure Humidity
    00:00 +4°C° 0.2 mm 4 mps 748 mmHg 90%
    01:00 +4°C° 0 mm 4 mps 748 mmHg 90%
    02:00 +4°C° 0 mm 4 mps 748 mmHg 91%
    03:00 +3°C° 0 mm 4 mps 748 mmHg 91%
    04:00 +4°C° 0.2 mm 4 mps 748 mmHg 91%
    05:00 +4°C° 0.2 mm 4 mps 747 mmHg 91%
    06:00 +4°C° 0.2 mm 4 mps 747 mmHg 91%
    07:00 +4°C° 0.2 mm 4 mps 748 mmHg 91%
    08:00 +4°C° 0.2 mm 4 mps 748 mmHg 92%
    09:00 +5°C° 0.2 mm 4 mps 748 mmHg 92%
    10:00 +5°C° 0.1 mm 4 mps 748 mmHg 90%
    11:00 +6°C° 0.1 mm 4 mps 748 mmHg 89%
    12:00 +6°C° 0.1 mm 4 mps 749 mmHg 87%
    13:00 +6°C° 0.1 mm 4 mps 749 mmHg 88%
    14:00 +5°C° 0.1 mm 3 mps 749 mmHg 89%
    15:00 +5°C° 0.1 mm 3 mps 749 mmHg 91%
    16:00 +5°C° 0.3 mm 3 mps 749 mmHg 92%
    17:00 +5°C° 0.3 mm 2 mps 750 mmHg 93%
    18:00 +5°C° 0.3 mm 2 mps 750 mmHg 94%
    19:00 +5°C° 0.1 mm 2 mps 750 mmHg 94%
    20:00 +5°C° 0.1 mm 2 mps 751 mmHg 94%
    21:00 +4°C° 0.1 mm 3 mps 751 mmHg 93%
    22:00 +5°C° 0 mm 2 mps 751 mmHg 93%
    23:00 +5°C° 0 mm 2 mps 751 mmHg 93%

    21 December, Friday

    Time Temperature Precipitation Wind Pressure Humidity
    00:00 +5°C° 0 mm 2 mps 752 mmHg 93%
    01:00 +4°C° 0 mm 2 mps 751 mmHg 93%
    02:00 +4°C° 0 mm 2 mps 751 mmHg 93%
    03:00 +4°C° 0 mm 2 mps 751 mmHg 93%
    04:00 +4°C° 0 mm 2 mps 750 mmHg 93%
    05:00 +4°C° 0 mm 2 mps 750 mmHg 93%
    06:00 +3°C° 0 mm 3 mps 750 mmHg 93%
    07:00 +3°C° 0.5 mm 3 mps 749 mmHg 92%
    08:00 +3°C° 0.5 mm 3 mps 749 mmHg 92%
    09:00 +3°C° 0.5 mm 3 mps 748 mmHg 91%
    10:00 +4°C° 0.7 mm 3 mps 748 mmHg 91%
    11:00 +4°C° 0.7 mm 3 mps 748 mmHg 91%
    12:00 +4°C° 0.7 mm 3 mps 747 mmHg 90%
    13:00 +4°C° 0.3 mm 3 mps 747 mmHg 91%
    14:00 +5°C° 0.3 mm 3 mps 747 mmHg 91%
    15:00 +5°C° 0.3 mm 3 mps 747 mmHg 92%
    16:00 +5°C° 0 mm 3 mps 747 mmHg 92%
    17:00 +5°C° 0 mm 3 mps 747 mmHg 92%
    18:00 +5°C° 0 mm 3 mps 748 mmHg 91%
    19:00 +5°C° 0.4 mm 3 mps 747 mmHg 93%
    20:00 +7°C° 0.4 mm 3 mps 747 mmHg 94%
    21:00 +7°C° 0.4 mm 3 mps 747 mmHg 95%
    22:00 +7°C° 0.7 mm 3 mps 747 mmHg 96%
    23:00 +7°C° 0.7 mm 3 mps 747 mmHg 96%
    Show more